Location: Bucharest
(44.4268°N, 26.1025°E)
Time: 16:54:02
(UTC+03:00)

CUTE 1.7 + AOD 2 - Visible Passes

Search period start: 26 June 2022 00:00
Search period end: 06 July 2022 00:00
Orbit: 591 x 607 km, 97.7° (Epoch: 25 June)

Date Brightness Start Highest point End Pass type
(mag) Time Alt. Az. Time Alt. Az. Time Alt. Az.
26 Jun ? 04:14:41 10° NE 04:17:47 20° E 04:20:51 10° SE visible
27 Jun ? 04:25:09 10° NE 04:28:41 25° E 04:32:10 10° SSE visible
28 Jun ? 04:35:45 10° NNE 04:39:33 32° E 04:43:20 10° SSE visible
29 Jun ? 04:46:23 10° NNE 04:50:25 43° E 04:54:24 10° S visible
30 Jun ? 04:57:06 10° NNE 05:01:15 57° E 05:05:21 10° S visible
03 Jul ? 03:55:49 10° ENE 03:57:31 12° E 03:59:13 10° ESE visible
04 Jul ? 04:05:51 10° NE 04:08:26 16° E 04:11:01 10° SE visible
05 Jul ? 04:16:09 10° NE 04:19:20 20° E 04:22:28 10° SE visible
